TimeCET,TemperatureF,Dew PointF,Humidity,Sea Level PressureIn,VisibilityMPH,Wind Direction,Wind SpeedMPH,Gust SpeedMPH,PrecipitationIn,Events,Conditions,WindDirDegrees,DateUTC
12:00 AM,51.8,44.6,76,29.95,-9999.0,WNW,4.6,-,N/A,,Clear,300,2012-11-20 23:00:00
5:30 AM,53.6,44.6,72,29.98,6.2,Variable,1.2,-,N/A,,Mostly Cloudy,0,2012-11-21 04:30:00
6:00 AM,53.6,44.6,72,29.98,6.2,West,2.3,-,N/A,,Mostly Cloudy,260,2012-11-21 05:00:00
6:30 AM,55.4,44.6,67,29.98,6.2,Variable,1.2,-,N/A,,Mostly Cloudy,0,2012-11-21 05:30:00
7:00 AM,51.8,46.4,82,30.01,6.2,NW,2.3,-,N/A,,Mostly Cloudy,310,2012-11-21 06:00:00
7:30 AM,51.8,46.4,82,30.01,6.2,NW,4.6,-,N/A,,Mostly Cloudy,320,2012-11-21 06:30:00
8:00 AM,51.8,46.4,82,30.04,6.2,Calm,Calm,-,N/A,,Mostly Cloudy,0,2012-11-21 07:00:00
8:30 AM,51.8,48.2,88,30.06,5.6,NW,1.2,-,N/A,Rain,Light Rain,320,2012-11-21 07:30:00
9:00 AM,50.0,48.2,94,30.06,5.6,Variable,1.2,-,N/A,Rain,Light Rain,0,2012-11-21 08:00:00
9:30 AM,50.0,48.2,94,30.09,4.3,NNW,11.5,-,N/A,Rain,Light Rain,330,2012-11-21 08:30:00
10:00 AM,50.0,46.4,87,30.12,5.6,NNW,9.2,-,N/A,Rain,Light Rain,330,2012-11-21 09:00:00
10:30 AM,50.0,46.4,87,30.12,5.6,NW,3.5,-,N/A,,Mostly Cloudy,320,2012-11-21 09:30:00
11:00 AM,50.0,44.6,82,30.15,6.2,NW,3.5,-,N/A,,Mostly Cloudy,310,2012-11-21 10:00:00
11:30 AM,50.0,46.4,87,30.15,6.2,NW,4.6,-,N/A,,Mostly Cloudy,320,2012-11-21 10:30:00
12:00 PM,51.8,46.4,82,30.15,6.2,NNW,5.8,-,N/A,,Mostly Cloudy,340,2012-11-21 11:00:00
12:30 PM,51.8,44.6,76,30.15,6.2,NNW,8.1,-,N/A,,Mostly Cloudy,340,2012-11-21 11:30:00
1:00 PM,53.6,46.4,77,30.15,6.2,North,8.1,-,N/A,,Mostly Cloudy,350,2012-11-21 12:00:00
1:30 PM,55.4,46.4,72,30.15,6.2,NNW,12.7,-,N/A,,Mostly Cloudy,330,2012-11-21 12:30:00
2:00 PM,53.6,44.6,72,30.15,6.2,NNW,12.7,-,N/A,,Scattered Clouds,330,2012-11-21 13:00:00
2:30 PM,55.4,42.8,63,30.15,6.2,NNW,13.8,-,N/A,,Scattered Clouds,340,2012-11-21 13:30:00
3:00 PM,53.6,42.8,67,30.15,6.2,North,11.5,-,N/A,,Scattered Clouds,350,2012-11-21 14:00:00
3:30 PM,53.6,42.8,67,30.15,6.2,North,9.2,-,N/A,,Scattered Clouds,350,2012-11-21 14:30:00
4:00 PM,53.6,41.0,62,30.15,6.2,North,11.5,-,N/A,,Scattered Clouds,360,2012-11-21 15:00:00
4:30 PM,53.6,42.8,67,30.15,6.2,North,10.4,-,N/A,,Scattered Clouds,350,2012-11-21 15:30:00
5:00 PM,50.0,42.8,76,30.18,6.2,North,12.7,-,N/A,,Scattered Clouds,350,2012-11-21 16:00:00
5:30 PM,50.0,42.8,76,30.18,6.2,North,11.5,-,N/A,,Scattered Clouds,350,2012-11-21 16:30:00
6:00 PM,50.0,42.8,76,30.18,6.2,North,10.4,-,N/A,,Scattered Clouds,350,2012-11-21 17:00:00
6:30 PM,48.2,41.0,76,30.18,6.2,NNW,10.4,-,N/A,,Scattered Clouds,340,2012-11-21 17:30:00
7:00 PM,48.2,41.0,76,30.21,6.2,NNW,9.2,-,N/A,,Scattered Clouds,340,2012-11-21 18:00:00
7:30 PM,48.2,41.0,76,30.21,6.2,NNW,8.1,-,N/A,,Scattered Clouds,340,2012-11-21 18:30:00
8:00 PM,48.2,41.0,76,30.21,6.2,NNW,5.8,-,N/A,,Scattered Clouds,330,2012-11-21 19:00:00
8:30 PM,46.4,41.0,81,30.21,6.2,NNW,5.8,-,N/A,,Partly Cloudy,330,2012-11-21 19:30:00
9:00 PM,46.4,41.0,81,30.24,6.2,NW,2.3,-,N/A,,Partly Cloudy,310,2012-11-21 20:00:00
9:30 PM,46.4,41.0,81,30.24,6.2,NNW,4.6,-,N/A,,Partly Cloudy,330,2012-11-21 20:30:00
10:00 PM,46.4,41.0,81,30.24,6.2,North,2.3,-,N/A,,Partly Cloudy,350,2012-11-21 21:00:00
10:30 PM,48.2,42.8,82,30.24,6.2,North,8.1,-,N/A,,Partly Cloudy,350,2012-11-21 21:30:00
11:00 PM,48.2,42.8,82,30.24,6.2,East,1.2,-,N/A,,Scattered Clouds,90,2012-11-21 22:00:00
11:30 PM,46.4,42.8,87,30.24,6.2,Variable,1.2,-,N/A,,Scattered Clouds,0,2012-11-21 22:30:00